sat.trackr.live / text

‹ back to catalog

STARLINK-5340

NORAD 56506 · 2023-065D

PAYLOAD ACTIVE UNKNOWN

§ Identity

Operator
Country
US
Launch date
2023-05-14
Launch site
AFETR
Launch vehicle
Mass (kg)
RCS (m²)

Purposes: comms

External: N2YO · Heavens-Above · Gunter

§ Orbital elements

Epoch: 2026-05-25T05:22:09.331104Z

Period
94.27 min
Inclination
43.0014°
Eccentricity
0.0001572
Mean motion
15.27561643 rev/d
Perigee alt
482.0 km
Apogee alt
484.2 km
Semi-major
6,861.2 km
B*
1.2162e-4
RAAN
129.0308°
Arg perigee
267.8386°
Mean anomaly
92.2285°
Rev number
16,843

§ Raw data

STARLINK-53401 56506U 23065D   26145.22371911  .00003084  00000+0  12162-3 0  99912 56506  43.0014 129.0308 0001572 267.8386  92.2285 15.27561643168434

JSON: /api/v1/satellites/56506 · /tle

For live sub-satellite position, see the globe view (requires WebGL).

§ Visibility from observer

Set your observer location to see the next 7 days of passes ≥ 10°. The values pass through the URL so the page stays shareable.

No JS? Fill the form by hand. The geolocation button needs JavaScript.